QPF
0.01 0.01 0.00 0.01 0.01 0.01 0.00 0.00 0.00 0.00 0.00 0.01 0.01 0.02 0.02 0.02 0.02 0.02 0.02 0.03 0.02 0.02 0.02 0.03 0.03 0.03 0.03 0.03 0.03 0.04 0.05 0.07 0.08 0.08 0.06 0.05 0.05 0.04 0.03 0.02 0.01 0.01 0.01 0.01
0.00 0.01 0.01 0.01 0.01 0.01 0.01 0.01 0.00 0.00 0.00 0.00 0.01 0.01 0.01 0.01 0.01 0.01 0.02 0.02 0.02 0.02 0.01 0.01 0.01 0.01 0.01 0.01 0.02 0.02 0.03 0.04 0.06 0.09 0.08 0.08 0.07 0.05 0.03 0.02 0.01 0.01 0.01 0.01
0.00 0.00 0.01 0.01 0.01 0.01 0.01 0.01 0.01 0.00 0.00 0.01 0.01 0.01 0.00 0.00 0.01 0.02 0.02 0.01 0.01 0.01 0.01 0.00 0.00 0.01 0.01 0.01 0.01 0.02 0.02 0.02 0.03 0.05 0.08 0.08 0.07 0.05 0.04 0.04 0.02 0.01 0.01 0.00
0.00 0.00 0.00 0.01 0.01 0.01 0.01 0.00 0.01 0.01 0.00 0.01 0.00 0.01 0.01 0.00 0.01 0.01 0.02 0.01 0.01 0.02 0.02 0.01 0.00 0.00 0.00 0.01 0.02 0.02 0.02 0.03 0.03 0.02 0.03 0.04 0.04 0.04 0.04 0.04 0.04 0.03 0.02 0.01
0.01 0.01 0.01 0.01 0.01 0.01 0.01 0.00 0.01 0.01 0.00 0.01 0.00 0.01 0.00 0.01 0.01 0.02 0.03 0.02 0.04 0.06 0.04 0.04 0.03 0.01 0.01 0.01 0.02 0.02 0.03 0.03 0.04 0.03 0.03 0.03 0.02 0.02 0.02 0.02 0.01 0.01 0.01 0.01
0.01 0.00 0.00 0.01 0.01 0.00 0.00 0.00 0.01 0.01 0.00 0.01 0.00 0.00 0.00 0.00 0.00 0.01 0.01 0.00 0.02 0.06 0.04 0.02 0.02 0.01 0.01 0.01 0.02 0.03 0.03 0.03 0.02 0.02 0.03 0.03 0.02 0.02 0.02 0.02 0.01 0.00 0.00 0.00
0.01 0.00 0.00 0.01 0.00 0.00 0.00 0.00 0.01 0.01 0.00 0.00 0.00 0.00 0.00 0.00 0.00 0.00 0.00 0.00 0.00 0.01 0.01 0.01 0.01 0.02 0.02 0.02 0.01 0.02 0.02 0.02 0.03 0.03 0.03 0.04 0.03 0.02 0.02 0.03 0.02 0.00 0.00 0.00
0.01 0.00 0.00 0.00 0.00 0.00 0.00 0.00 0.01 0.01 0.01 0.00 0.00 0.00 0.00 0.01 0.01 0.00 0.00 0.01 0.01 0.01 0.01 0.01 0.01 0.00 0.01 0.01 0.01 0.01 0.02 0.03 0.04 0.04 0.03 0.02 0.01 0.01 0.01 0.01 0.01 0.00 0.01 0.00
0.00 0.00 0.00 0.00 0.00 0.01 0.00 0.01 0.01 0.01 0.01 0.01 0.00 0.01 0.02 0.02 0.01 0.01 0.01 0.02 0.02 0.01 0.00 0.00 0.00 0.01 0.01 0.01 0.01 0.01 0.02 0.02 0.02 0.02 0.01 0.01 0.01 0.01 0.01 0.01 0.00 0.01 0.01 0.01
0.00 0.00 0.00 0.01 0.01 0.01 0.01 0.01 0.02 0.02 0.01 0.01 0.01 0.04 0.05 0.02 0.01 0.01 0.01 0.01 0.01 0.00 0.00 0.00 0.00 0.00 0.00 0.01 0.01 0.01 0.01 0.02 0.02 0.02 0.02 0.01 0.01 0.01 0.01 0.00 0.00 0.01 0.01 0.01
0.00 0.01 0.01 0.01 0.01 0.01 0.01 0.01 0.01 0.02 0.01 0.01 0.02 0.05 0.04 0.02 0.01 0.01 0.01 0.01 0.00 0.00 0.00 0.00 0.00 0.00 0.00 0.01 0.01 0.01 0.01 0.01 0.01 0.02 0.02 0.01 0.01 0.01 0.01 0.01 0.00 0.01 0.01 0.01
0.01 0.01 0.01 0.01 0.01 0.01 0.02 0.03 0.03 0.02 0.01 0.02 0.03 0.03 0.02 0.01 0.01 0.01 0.00 0.00 0.00 0.00 0.00 0.00 0.00 0.00 0.00 0.01 0.01 0.00 0.01 0.01 0.01 0.02 0.02 0.02 0.02 0.01 0.01 0.01 0.01 0.01 0.01 0.01
0.01 0.02 0.01 0.01 0.01 0.01 0.01 0.01 0.02 0.03 0.03 0.02 0.01 0.01 0.01 0.01 0.01 0.00 0.00 0.00 0.00 0.00 0.00 0.00 0.00 0.01 0.01 0.01 0.01 0.00 0.01 0.01 0.01 0.02 0.03 0.02 0.02 0.01 0.01 0.01 0.01 0.01 0.01 0.01
0.01 0.02 0.02 0.01 0.01 0.01 0.01 0.01 0.00 0.01 0.01 0.01 0.01 0.01 0.01 0.00 0.01 0.00 0.00 0.00 0.00 0.00 0.00 0.00 0.00 0.01 0.01 0.01 0.02 0.02 0.01 0.01 0.02 0.02 0.02 0.02 0.02 0.02 0.01 0.01 0.02 0.01 0.02 0.02
0.01 0.01 0.01 0.01 0.01 0.00 0.00 0.00 0.00 0.00 0.00 0.00 0.00 0.00 0.00 0.01 0.01 0.00 0.00 0.00 0.01 0.01 0.01 0.00 0.00 0.00 0.00 0.01 0.01 0.01 0.01 0.02 0.02 0.02 0.02 0.02 0.03 0.03 0.02 0.01 0.02 0.02 0.02 0.02
0.01 0.00 0.01 0.01 0.00 0.00 0.00 0.00 0.00 0.00 0.00 0.00 0.00 0.00 0.00 0.00 0.00 0.00 0.00 0.00 0.00 0.00 0.00 0.00 0.00 0.00 0.00 0.00 0.01 0.01 0.01 0.01 0.02 0.02 0.02 0.03 0.03 0.03 0.02 0.02 0.02 0.02 0.02 0.02
0.01 0.01 0.01 0.01 0.01 0.01 0.01 0.02 0.01 0.00 0.00 0.00 0.00 0.00 0.00 0.01 0.01 0.01 0.01 0.01 0.00 0.00 0.00 0.00 0.01 0.00 0.00 0.00 0.00 0.01 0.01 0.01 0.01 0.01 0.02 0.02 0.02 0.03 0.03 0.02 0.02 0.02 0.03 0.03
0.01 0.01 0.01 0.01 0.02 0.02 0.03 0.03 0.02 0.01 0.00 0.00 0.00 0.01 0.01 0.01 0.02 0.01 0.01 0.00 0.00 0.00 0.00 0.00 0.00 0.00 0.00 0.00 0.00 0.00 0.00 0.01 0.01 0.01 0.01 0.01 0.01 0.02 0.02 0.02 0.02 0.02 0.02 0.03
0.01 0.01 0.02 0.01 0.02 0.01 0.02 0.03 0.02 0.02 0.01 0.01 0.01 0.01 0.01 0.01 0.01 0.01 0.00 0.00 0.00 0.00 0.00 0.00 0.00 0.01 0.00 0.01 0.01 0.01 0.00 0.00 0.00 0.00 0.00 0.01 0.01 0.01 0.01 0.01 0.01 0.02 0.03 0.04
0.01 0.01 0.02 0.01 0.01 0.01 0.01 0.01 0.02 0.01 0.01 0.00 0.01 0.01 0.01 0.01 0.00 0.00 0.00 0.00 0.00 0.00 0.00 0.00 0.00 0.01 0.01 0.01 0.01 0.01 0.00 0.00 0.00 0.00 0.00 0.01 0.01 0.01 0.01 0.01 0.01 0.01 0.02 0.03
0.01 0.01 0.02 0.02 0.01 0.01 0.00 0.00 0.01 0.02 0.01 0.00 0.01 0.01 0.01 0.01 0.00 0.00 0.00 0.00 0.00 0.00 0.00 0.00 0.00 0.00 0.00 0.00 0.01 0.01 0.00 0.00 0.00 0.00 0.00 0.01 0.01 0.01 0.01 0.01 0.01 0.01 0.02 0.02
0.01 0.01 0.01 0.01 0.02 0.01 0.01 0.01 0.01 0.01 0.01 0.00 0.00 0.01 0.01 0.00 0.00 0.00 0.00 0.00 0.00 0.00 0.00 0.00 0.00 0.00 0.00 0.00 0.00 0.01 0.00 0.00 0.00 0.00 0.00 0.01 0.01 0.01 0.01 0.01 0.01 0.02 0.02 0.02
0.01 0.02 0.01 0.01 0.01 0.01 0.01 0.01 0.01 0.01 0.01 0.01 0.01 0.01 0.01 0.00 0.00 0.00 0.00 0.00 0.00 0.00 0.00 0.00 0.00 0.00 0.00 0.00 0.00 0.00 0.01 0.01 0.00 0.00 0.00 0.00 0.01 0.01 0.01 0.01 0.01 0.02 0.02 0.02
0.02 0.02 0.01 0.01 0.00 0.00 0.00 0.00 0.00 0.00 0.01 0.01 0.01 0.00 0.01 0.01 0.00 0.00 0.00 0.00 0.00 0.00 0.00 0.00 0.00 0.00 0.00 0.00 0.00 0.00 0.01 0.01 0.01 0.01 0.01 0.00 0.00 0.01 0.01 0.01 0.01 0.01 0.01 0.01
0.03 0.03 0.02 0.01 0.00 0.00 0.00 0.00 0.01 0.01 0.01 0.01 0.01 0.00 0.00 0.00 0.00 0.00 0.00 0.00 0.00 0.00 0.00 0.00 0.00 0.00 0.00 0.00 0.00 0.00 0.00 0.00 0.00 0.00 0.00 0.00 0.00 0.01 0.01 0.01 0.01 0.01 0.01 0.01
0.01 0.03 0.02 0.02 0.01 0.00 0.00 0.01 0.01 0.01 0.01 0.01 0.01 0.00 0.00 0.00 0.00 0.00 0.00 0.00 0.00 0.00 0.00 0.00 0.00 0.00 0.00 0.00 0.00 0.00 0.00 0.00 0.00 0.00 0.00 0.00 0.00 0.01 0.01 0.01 0.01 0.01 0.01 0.01
MSLP
1016.52 1017.82 1018.96 1019.91 1020.67 1021.27 1021.74 1022.14 1022.52 1022.91 1023.32 1023.74 1024.16 1024.53 1024.83 1025.04 1025.16 1025.20 1025.17 1025.10 1025.01 1024.92 1024.82 1024.72 1024.60 1024.45 1024.25 1024.01 1023.71 1023.38 1023.03 1022.69 1022.36 1022.06 1021.78 1021.52 1021.24 1020.95 1020.61 1020.23 1019.80 1019.33 1018.85 1018.37
1017.32 1018.45 1019.42 1020.22 1020.86 1021.39 1021.85 1022.28 1022.72 1023.18 1023.63 1024.07 1024.45 1024.75 1024.95 1025.05 1025.07 1025.03 1024.98 1024.92 1024.88 1024.85 1024.83 1024.79 1024.69 1024.54 1024.32 1024.03 1023.70 1023.35 1023.01 1022.70 1022.44 1022.23 1022.04 1021.86 1021.65 1021.39 1021.06 1020.67 1020.22 1019.74 1019.26 1018.79
1017.88 1018.84 1019.64 1020.31 1020.87 1021.37 1021.86 1022.36 1022.89 1023.42 1023.92 1024.36 1024.68 1024.88 1024.95 1024.91 1024.81 1024.69 1024.59 1024.54 1024.54 1024.59 1024.64 1024.65 1024.60 1024.47 1024.24 1023.93 1023.58 1023.23 1022.91 1022.66 1022.48 1022.36 1022.26 1022.15 1022.00 1021.76 1021.44 1021.03 1020.56 1020.06 1019.57 1019.12
1018.25 1019.02 1019.66 1020.21 1020.73 1021.25 1021.81 1022.42 1023.05 1023.68 1024.22 1024.64 1024.89 1024.96 1024.88 1024.68 1024.43 1024.20 1024.05 1023.99 1024.03 1024.14 1024.27 1024.36 1024.37 1024.27 1024.06 1023.76 1023.42 1023.09 1022.82 1022.63 1022.52 1022.48 1022.46 1022.41 1022.30 1022.09 1021.76 1021.33 1020.83 1020.30 1019.79 1019.33
1018.50 1019.07 1019.56 1020.03 1020.53 1021.10 1021.76 1022.50 1023.26 1023.97 1024.56 1024.95 1025.10 1025.03 1024.77 1024.38 1023.98 1023.63 1023.40 1023.33 1023.40 1023.57 1023.79 1023.96 1024.05 1024.01 1023.85 1023.59 1023.29 1023.00 1022.77 1022.64 1022.60 1022.62 1022.66 1022.66 1022.57 1022.36 1022.02 1021.56 1021.03 1020.47 1019.93 1019.45
1018.70 1019.09 1019.45 1019.86 1020.36 1021.00 1021.78 1022.65 1023.54 1024.33 1024.93 1025.28 1025.33 1025.10 1024.65 1024.08 1023.51 1023.03 1022.73 1022.64 1022.73 1022.97 1023.27 1023.55 1023.73 1023.77 1023.68 1023.48 1023.23 1022.99 1022.81 1022.72 1022.73 1022.79 1022.86 1022.88 1022.80 1022.58 1022.21 1021.73 1021.16 1020.57 1020.00 1019.49
1018.92 1019.14 1019.40 1019.76 1020.29 1021.01 1021.90 1022.89 1023.88 1024.73 1025.34 1025.63 1025.56 1025.18 1024.55 1023.80 1023.07 1022.47 1022.10 1021.99 1022.12 1022.42 1022.81 1023.19 1023.47 1023.61 1023.60 1023.48 1023.28 1023.09 1022.95 1022.89 1022.91 1022.98 1023.05 1023.07 1022.98 1022.74 1022.35 1021.84 1021.24 1020.62 1020.01 1019.48
1019.17 1019.27 1019.45 1019.78 1020.34 1021.13 1022.11 1023.19 1024.24 1025.13 1025.72 1025.94 1025.76 1025.23 1024.44 1023.54 1022.68 1022.00 1021.58 1021.46 1021.62 1021.99 1022.46 1022.94 1023.32 1023.56 1023.64 1023.58 1023.44 1023.28 1023.16 1023.11 1023.12 1023.17 1023.22 1023.21 1023.09 1022.83 1022.42 1021.88 1021.27 1020.62 1019.99 1019.42
1019.44 1019.46 1019.58 1019.91 1020.49 1021.33 1022.36 1023.50 1024.57 1025.45 1026.00 1026.14 1025.85 1025.20 1024.30 1023.29 1022.35 1021.62 1021.18 1021.07 1021.28 1021.71 1022.27 1022.83 1023.31 1023.63 1023.79 1023.79 1023.70 1023.56 1023.44 1023.36 1023.34 1023.35 1023.35 1023.29 1023.13 1022.84 1022.41 1021.87 1021.25 1020.59 1019.95 1019.34
1019.67 1019.65 1019.76 1020.09 1020.69 1021.55 1022.60 1023.73 1024.78 1025.61 1026.09 1026.15 1025.78 1025.05 1024.08 1023.03 1022.06 1021.32 1020.91 1020.84 1021.10 1021.59 1022.22 1022.86 1023.41 1023.81 1024.02 1024.08 1024.01 1023.88 1023.74 1023.63 1023.55 1023.50 1023.44 1023.32 1023.12 1022.79 1022.35 1021.81 1021.19 1020.54 1019.88 1019.25
1019.81 1019.81 1019.93 1020.27 1020.87 1021.71 1022.73 1023.80 1024.78 1025.52 1025.91 1025.90 1025.47 1024.71 1023.74 1022.71 1021.79 1021.11 1020.75 1020.75 1021.07 1021.63 1022.31 1023.01 1023.61 1024.05 1024.31 1024.40 1024.35 1024.21 1024.05 1023.89 1023.76 1023.63 1023.49 1023.30 1023.04 1022.69 1022.24 1021.69 1021.09 1020.45 1019.80 1019.15
1019.85 1019.90 1020.06 1020.41 1020.99 1021.77 1022.71 1023.67 1024.53 1025.15 1025.45 1025.37 1024.92 1024.18 1023.26 1022.32 1021.50 1020.93 1020.68 1020.77 1021.16 1021.77 1022.50 1023.22 1023.85 1024.33 1024.61 1024.72 1024.68 1024.54 1024.35 1024.15 1023.94 1023.74 1023.52 1023.26 1022.94 1022.55 1022.08 1021.55 1020.96 1020.33 1019.69 1019.04
1019.83 1019.94 1020.15 1020.50 1021.03 1021.72 1022.52 1023.33 1024.03 1024.52 1024.71 1024.58 1024.14 1023.47 1022.67 1021.87 1021.22 1020.80 1020.68 1020.87 1021.33 1021.99 1022.73 1023.47 1024.11 1024.59 1024.89 1025.01 1024.99 1024.85 1024.64 1024.39 1024.13 1023.85 1023.55 1023.21 1022.83 1022.40 1021.90 1021.36 1020.79 1020.18 1019.56 1018.91
1019.82 1020.01 1020.24 1020.57 1021.02 1021.58 1022.21 1022.82 1023.34 1023.67 1023.76 1023.60 1023.20 1022.64 1022.00 1021.40 1020.94 1020.71 1020.74 1021.04 1021.56 1022.24 1022.99 1023.72 1024.34 1024.82 1025.12 1025.26 1025.24 1025.11 1024.89 1024.62 1024.31 1023.96 1023.59 1023.18 1022.72 1022.23 1021.71 1021.16 1020.59 1020.00 1019.40 1018.77
1019.92 1020.16 1020.40 1020.67 1021.01 1021.40 1021.82 1022.21 1022.52 1022.69 1022.69 1022.51 1022.18 1021.76 1021.31 1020.93 1020.69 1020.66 1020.84 1021.24 1021.82 1022.51 1023.24 1023.93 1024.53 1024.98 1025.28 1025.43 1025.43 1025.32 1025.11 1024.82 1024.47 1024.08 1023.63 1023.14 1022.62 1022.07 1021.51 1020.93 1020.36 1019.79 1019.21 1018.60
1020.19 1020.45 1020.66 1020.85 1021.03 1021.22 1021.40 1021.56 1021.66 1021.67 1021.59 1021.41 1021.17 1020.90 1020.66 1020.52 1020.51 1020.66 1021.00 1021.48 1022.09 1022.77 1023.46 1024.10 1024.64 1025.07 1025.36 1025.51 1025.54 1025.45 1025.25 1024.97 1024.60 1024.17 1023.66 1023.11 1022.52 1021.91 1021.30 1020.70 1020.13 1019.57 1019.01 1018.43
1020.64 1020.89 1021.04 1021.09 1021.10 1021.06 1021.00 1020.92 1020.81 1020.68 1020.53 1020.37 1020.23 1020.13 1020.10 1020.18 1020.39 1020.72 1021.18 1021.74 1022.36 1023.00 1023.63 1024.20 1024.68 1025.07 1025.34 1025.50 1025.55 1025.49 1025.32 1025.05 1024.68 1024.21 1023.67 1023.06 1022.41 1021.75 1021.10 1020.48 1019.90 1019.35 1018.81 1018.25
1021.21 1021.41 1021.45 1021.36 1021.16 1020.90 1020.60 1020.30 1020.01 1019.76 1019.56 1019.44 1019.40 1019.47 1019.64 1019.93 1020.32 1020.81 1021.37 1021.97 1022.58 1023.18 1023.73 1024.22 1024.64 1024.97 1025.22 1025.38 1025.45 1025.42 1025.28 1025.03 1024.67 1024.20 1023.63 1022.98 1022.29 1021.59 1020.92 1020.28 1019.69 1019.15 1018.63 1018.10
1021.75 1021.86 1021.78 1021.53 1021.14 1020.67 1020.17 1019.68 1019.24 1018.91 1018.69 1018.62 1018.69 1018.91 1019.26 1019.73 1020.29 1020.90 1021.53 1022.15 1022.74 1023.28 1023.76 1024.17 1024.51 1024.79 1025.01 1025.17 1025.25 1025.25 1025.14 1024.92 1024.57 1024.10 1023.53 1022.87 1022.17 1021.45 1020.76 1020.12 1019.54 1019.01 1018.51 1018.00
1022.08 1022.10 1021.90 1021.49 1020.94 1020.30 1019.63 1019.00 1018.48 1018.10 1017.89 1017.88 1018.07 1018.43 1018.94 1019.56 1020.24 1020.94 1021.63 1022.26 1022.82 1023.30 1023.70 1024.04 1024.31 1024.55 1024.74 1024.88 1024.98 1024.99 1024.91 1024.71 1024.39 1023.94 1023.37 1022.73 1022.03 1021.33 1020.65 1020.02 1019.46 1018.94 1018.45 1017.95
1022.08 1021.99 1021.67 1021.14 1020.47 1019.71 1018.95 1018.25 1017.68 1017.31 1017.15 1017.21 1017.51 1017.99 1018.63 1019.37 1020.15 1020.91 1021.63 1022.26 1022.79 1023.22 1023.57 1023.84 1024.06 1024.25 1024.42 1024.55 1024.64 1024.67 1024.60 1024.43 1024.13 1023.71 1023.17 1022.56 1021.90 1021.22 1020.58 1019.98 1019.44 1018.94 1018.46 1017.95
1021.62 1021.44 1021.03 1020.43 1019.69 1018.88 1018.09 1017.39 1016.85 1016.52 1016.44 1016.60 1016.99 1017.58 1018.32 1019.14 1019.98 1020.79 1021.52 1022.15 1022.66 1023.06 1023.36 1023.60 1023.78 1023.94 1024.08 1024.19 1024.28 1024.30 1024.25 1024.09 1023.82 1023.43 1022.94 1022.37 1021.76 1021.13 1020.53 1019.98 1019.46 1018.99 1018.51 1018.00
1020.70 1020.45 1019.99 1019.36 1018.61 1017.83 1017.08 1016.45 1016.00 1015.76 1015.78 1016.04 1016.52 1017.20 1018.00 1018.88 1019.76 1020.59 1021.33 1021.95 1022.45 1022.83 1023.11 1023.32 1023.48 1023.62 1023.74 1023.84 1023.90 1023.92 1023.87 1023.72 1023.47 1023.11 1022.67 1022.16 1021.60 1021.04 1020.50 1019.99 1019.52 1019.06 1018.59 1018.08
1019.40 1019.10 1018.62 1018.00 1017.32 1016.63 1016.00 1015.49 1015.17 1015.07 1015.20 1015.56 1016.12 1016.86 1017.70 1018.60 1019.49 1020.32 1021.05 1021.67 1022.16 1022.54 1022.82 1023.02 1023.18 1023.30 1023.40 1023.48 1023.53 1023.53 1023.47 1023.32 1023.09 1022.77 1022.37 1021.92 1021.43 1020.94 1020.46 1020.00 1019.56 1019.12 1018.66 1018.14
1017.84 1017.50 1017.04 1016.50 1015.92 1015.38 1014.92 1014.59 1014.43 1014.48 1014.73 1015.19 1015.82 1016.59 1017.44 1018.34 1019.21 1020.02 1020.74 1021.35 1021.84 1022.22 1022.51 1022.72 1022.87 1022.99 1023.07 1023.13 1023.15 1023.13 1023.05 1022.90 1022.68 1022.38 1022.03 1021.64 1021.22 1020.79 1020.38 1019.97 1019.56 1019.15 1018.69 1018.18
1016.18 1015.83 1015.41 1014.97 1014.55 1014.19 1013.93 1013.80 1013.84 1014.04 1014.42 1014.96 1015.64 1016.42 1017.26 1018.12 1018.96 1019.74 1020.44 1021.03 1021.52 1021.90 1022.19 1022.40 1022.56 1022.66 1022.73 1022.76 1022.75 1022.70 1022.59 1022.44 1022.22 1021.96 1021.65 1021.32 1020.96 1020.60 1020.24 1019.88 1019.51 1019.12 1018.68 1018.18
Thickness
5718 5706 5698 5703 5707 5706 5702 5697 5694 5701 5713 5708 5702 5703 5710 5712 5711 5709 5708 5708 5707 5709 5712 5712 5712 5711 5710 5708 5706 5705 5703 5701 5699 5695 5692 5690 5688 5687 5686 5685 5684 5683 5682 5681
5701 5698 5708 5712 5710 5706 5700 5694 5693 5699 5709 5706 5700 5701 5709 5711 5710 5711 5710 5708 5707 5707 5707 5708 5708 5708 5707 5705 5704 5702 5700 5698 5696 5694 5691 5688 5686 5683 5682 5681 5680 5679 5678 5677
5696 5703 5713 5709 5703 5699 5695 5692 5692 5693 5699 5701 5697 5693 5701 5708 5711 5712 5711 5710 5708 5707 5705 5705 5704 5704 5704 5703 5702 5701 5698 5696 5694 5691 5688 5684 5681 5679 5677 5676 5675 5674 5674 5673
5697 5707 5707 5702 5699 5698 5688 5700 5698 5694 5684 5677 5687 5671 5691 5699 5702 5706 5707 5706 5706 5706 5705 5703 5702 5701 5701 5701 5700 5698 5695 5693 5690 5688 5685 5681 5677 5674 5673 5672 5671 5670 5670 5668
5694 5702 5701 5697 5699 5700 5695 5701 5695 5690 5682 5673 5676 5669 5680 5693 5695 5702 5705 5706 5706 5705 5704 5703 5702 5701 5701 5699 5697 5695 5692 5689 5687 5684 5682 5679 5676 5673 5671 5669 5667 5666 5665 5664
5696 5705 5704 5702 5705 5703 5699 5690 5682 5673 5667 5658 5670 5665 5672 5685 5695 5701 5705 5705 5706 5705 5703 5702 5701 5699 5697 5696 5694 5691 5688 5685 5683 5681 5678 5676 5673 5670 5667 5666 5663 5661 5660 5660
5685 5693 5700 5704 5695 5694 5689 5672 5654 5651 5645 5651 5668 5665 5673 5696 5701 5703 5704 5704 5704 5703 5700 5698 5696 5694 5693 5692 5690 5687 5685 5682 5680 5678 5676 5674 5672 5668 5666 5664 5661 5658 5656 5655
5669 5670 5690 5697 5693 5684 5681 5672 5651 5643 5640 5647 5662 5661 5680 5699 5702 5704 5705 5703 5702 5700 5698 5696 5695 5693 5691 5689 5687 5684 5682 5679 5677 5675 5673 5672 5669 5666 5663 5662 5659 5657 5654 5653
5664 5667 5689 5696 5698 5689 5675 5667 5669 5652 5648 5644 5651 5664 5682 5696 5697 5698 5698 5697 5696 5696 5695 5693 5692 5691 5689 5686 5684 5682 5679 5676 5674 5672 5670 5668 5665 5663 5661 5659 5657 5655 5653 5651
5670 5663 5678 5688 5691 5687 5682 5670 5656 5647 5638 5635 5647 5656 5665 5684 5688 5690 5691 5691 5691 5691 5690 5689 5688 5687 5685 5684 5682 5680 5677 5675 5672 5669 5667 5665 5662 5660 5658 5655 5653 5651 5649 5647
5668 5658 5665 5674 5673 5671 5669 5664 5655 5644 5642 5633 5634 5652 5680 5683 5687 5686 5687 5688 5687 5686 5685 5684 5683 5682 5681 5680 5677 5675 5673 5671 5668 5666 5664 5661 5659 5657 5654 5652 5650 5648 5646 5643
5658 5650 5648 5660 5675 5679 5673 5666 5655 5645 5640 5636 5633 5650 5684 5684 5684 5684 5683 5683 5683 5682 5681 5679 5678 5676 5675 5673 5672 5671 5670 5668 5666 5663 5660 5657 5655 5653 5650 5648 5646 5644 5641 5638
5653 5644 5638 5645 5654 5663 5663 5663 5658 5649 5637 5628 5630 5650 5677 5677 5677 5678 5677 5677 5676 5676 5675 5673 5671 5670 5669 5668 5667 5666 5665 5663 5661 5659 5656 5652 5650 5648 5645 5643 5642 5639 5636 5633
5653 5638 5636 5637 5644 5651 5653 5656 5654 5647 5635 5630 5637 5651 5664 5668 5669 5670 5671 5671 5669 5668 5668 5666 5665 5664 5664 5663 5662 5661 5659 5658 5656 5653 5650 5647 5645 5643 5641 5639 5637 5634 5631 5629
5644 5634 5638 5642 5649 5651 5651 5653 5651 5647 5646 5640 5647 5649 5659 5663 5664 5665 5666 5665 5663 5662 5662 5661 5659 5658 5658 5657 5657 5656 5654 5652 5650 5647 5644 5642 5641 5638 5636 5633 5631 5629 5626 5624
5632 5630 5633 5637 5644 5644 5644 5648 5649 5648 5647 5645 5647 5648 5660 5661 5659 5658 5658 5659 5657 5656 5656 5656 5655 5654 5652 5651 5651 5650 5648 5647 5644 5642 5639 5637 5634 5632 5629 5627 5625 5623 5621 5618
5620 5621 5620 5621 5630 5635 5632 5644 5646 5645 5646 5646 5643 5649 5654 5653 5653 5652 5652 5652 5652 5651 5650 5649 5648 5647 5646 5646 5645 5643 5642 5640 5638 5635 5633 5630 5628 5625 5623 5621 5618 5616 5614 5612
5615 5612 5607 5609 5618 5617 5637 5649 5649 5645 5645 5646 5646 5647 5648 5648 5649 5650 5650 5648 5647 5646 5645 5643 5642 5641 5640 5639 5638 5637 5635 5633 5631 5628 5626 5623 5621 5619 5617 5614 5612 5610 5608 5605
5615 5610 5601 5599 5604 5615 5632 5643 5643 5638 5637 5643 5641 5642 5641 5641 5642 5641 5645 5645 5644 5643 5641 5639 5637 5636 5634 5633 5631 5629 5627 5625 5623 5621 5619 5617 5614 5612 5609 5607 5605 5604 5601 5599
5607 5605 5597 5594 5600 5606 5628 5640 5643 5638 5628 5638 5637 5635 5633 5632 5625 5632 5640 5639 5638 5637 5634 5632 5631 5629 5627 5626 5624 5622 5619 5618 5616 5615 5613 5611 5608 5605 5603 5601 5599 5597 5595 5593
5599 5595 5591 5589 5593 5606 5625 5632 5635 5618 5623 5634 5632 5631 5627 5624 5627 5631 5633 5632 5631 5629 5628 5626 5623 5621 5620 5619 5617 5614 5612 5610 5610 5608 5606 5604 5601 5599 5596 5594 5592 5590 5589 5586
5594 5590 5586 5584 5588 5602 5621 5621 5618 5619 5625 5627 5627 5626 5623 5623 5624 5625 5624 5623 5622 5621 5619 5618 5615 5613 5612 5611 5609 5607 5604 5604 5603 5601 5599 5596 5594 5593 5590 5586 5584 5583 5581 5578
5588 5593 5592 5594 5600 5610 5612 5614 5617 5618 5617 5620 5620 5621 5619 5618 5617 5617 5616 5615 5614 5612 5611 5609 5607 5605 5603 5602 5601 5599 5598 5597 5595 5593 5591 5588 5586 5584 5582 5579 5576 5574 5572 5570
5584 5586 5588 5589 5598 5603 5606 5607 5610 5611 5612 5614 5614 5615 5614 5612 5611 5609 5608 5606 5605 5604 5602 5601 5599 5596 5595 5594 5593 5592 5591 5590 5588 5585 5582 5580 5577 5575 5573 5571 5569 5566 5564 5562
5582 5579 5580 5584 5592 5596 5601 5601 5603 5604 5605 5606 5606 5607 5607 5605 5603 5601 5599 5598 5597 5595 5594 5592 5591 5589 5587 5586 5586 5585 5584 5582 5579 5577 5575 5572 5570 5567 5564 5562 5560 5559 5558 5556
5575 5576 5576 5582 5588 5586 5592 5596 5597 5596 5597 5598 5598 5598 5598 5597 5595 5593 5590 5589 5588 5586 5584 5583 5581 5580 5579 5578 5578 5578 5576 5574 5572 5569 5567 5564 5562 5559 5557 5553 5551 5550 5550 5549